Home > Weather > Mabalacat > Past weeks

Flag for Philippines Past Weather in Mabalacat, Philippines — Yesterday and Last 2 Weeks

Now
90 °F

Partly sunny.


Feels Like: 100 °F
Forecast: 79 / 93 °F
Wind: 5 mph from South

Location: Clarkfield Pampanga International Airport

Current Time: Jul 26, 2016 at 8:22:47 PM

Latest Report: Jul 26, 2016 at 6:00 PM


Visibility: N/A

Pressure: 29.80 "Hg

Humidity: 63%

Dew Point: 75 °F

Location of MabalacatLocation

Past Weather in Mabalacat — Graph

°F

Mabalacat Temperature Yesterday

Maximum temperature yesterday: 91 °F (at 4:00 PM)
Minimum temperature yesterday: 75 °F (at 3:00 AM)
Average temperature yesterday: 83 °F

High & Low Weather Summary for the Past Weeks

 TemperatureHumidityPressure
High95 °F (Jul 17, 4:00 PM)100% (Jul 12, 7:00 AM)29.92 "Hg (Jul 12, 7:00 AM)
Low73 °F (Jul 13, 3:00 AM)44% (Jul 18, 5:00 PM)29.74 "Hg (Jul 13, 4:00 PM)
Average83 °F78%29.85 "Hg
* Reported Jul 11 10:00 PM — Jul 26 6:00 PM, Mabalacat, Weather by CustomWeather, © 2016

Note: Actual official high and low records may vary slightly from our data, if they occured in-between our weather recording intervals... More about our weather records

Advertising

Mabalacat Weather History for the Previous 24 Hours

Scroll right to see more
 ConditionsComfort  
Time TempWeatherWind HumidityBarometerVisibility
6:00 PM
Tue, Jul 26
90 °FPartly sunny.5 mph63%29.80 "HgN/A
5:00 PM91 °FPartly sunny.5 mph56%29.77 "HgN/A
4:00 PM93 °FPartly sunny.3 mph53%29.77 "HgN/A
3:00 PM93 °FPartly sunny.5 mph59%29.77 "HgN/A
2:00 PM93 °FPartly sunny.5 mph59%29.80 "HgN/A
1:00 PM91 °FBroken clouds.7 mph67%29.80 "Hg6 mi
12:00 PM90 °FBroken clouds.6 mph67%29.83 "HgN/A
11:00 AM90 °FBroken clouds.6 mph67%29.86 "HgN/A
10:00 AM86 °FBroken clouds.6 mph75%29.86 "HgN/A
9:00 AM84 °FPartly sunny.1 mph79%29.86 "HgN/A
8:00 AM82 °FScattered clouds.2 mph79%29.86 "HgN/A
7:00 AM79 °FPartly sunny.1 mph89%29.83 "HgN/A
6:00 AM77 °FScattered clouds.3 mph89%29.83 "HgN/A
5:00 AM77 °FPassing clouds.3 mph89%29.83 "HgN/A
4:00 AM79 °FPassing clouds.5 mph89%29.83 "HgN/A
3:00 AM79 °FPassing clouds.6 mph89%29.83 "HgN/A
2:00 AM79 °FPassing clouds.2 mph89%29.83 "HgN/A
1:00 AM81 °FPassing clouds.1 mph89%29.86 "HgN/A
12:00 AM81 °FPassing clouds.3 mph84%29.86 "HgN/A
11:00 PM
Mon, Jul 25
81 °FPassing clouds.2 mph89%29.89 "HgN/A
10:00 PM82 °FPassing clouds.2 mph84%29.89 "HgN/A
9:00 PM82 °FPassing clouds.3 mph84%29.86 "HgN/A
8:00 PM84 °FPassing clouds.2 mph79%29.83 "HgN/A
Weather by CustomWeather, © 2016

See weather overviewHow to use our weather pages